Temp
57 57 57 57 57 57 57 57 57 57 57 58 58 59 59 58 57 55 54 55 54 48 51 53 54 50 50 51 50 52 52 53 56 51 52 54 52 59 55 62 62 62 60 59 62 57 57 69 72 69 66 69 69 71
56 57 57 57 57 57 57 57 57 57 57 57 58 58 58 58 57 55 52 57 54 48 51 53 57 59 58 57 54 53 50 50 56 53 53 53 51 55 52 53 61 57 65 64 63 67 66 70 68 70 70 68 69 69
55 55 56 56 56 56 57 57 57 57 57 57 57 58 58 57 57 56 55 53 50 47 50 51 54 58 60 60 64 51 55 56 56 59 55 53 47 55 50 55 53 61 62 61 62 66 66 70 70 71 71 69 72 73
55 56 56 56 56 56 57 57 57 57 57 57 57 58 58 57 56 56 54 56 51 47 41 52 59 57 63 61 60 62 60 59 59 58 54 52 50 56 53 55 53 60 60 59 62 66 68 69 71 71 70 72 72 73
55 55 56 56 56 56 56 57 57 57 57 57 57 57 57 57 55 55 53 53 53 48 43 49 58 59 59 59 58 59 58 56 54 51 50 48 55 54 57 55 53 61 60 58 60 62 61 64 69 70 68 69 71 71
55 55 55 56 55 56 56 56 56 56 56 56 56 56 56 56 53 53 49 54 53 51 45 41 56 53 57 58 57 56 57 55 53 50 52 55 61 56 51 50 61 63 65 66 62 65 64 66 69 71 69 70 72 72
55 55 55 55 56 56 56 56 56 56 56 56 56 55 55 54 55 50 49 53 54 53 46 43 47 57 55 56 58 54 52 50 53 52 51 54 55 55 52 48 59 63 60 62 65 64 62 69 66 69 69 70 71 75
55 55 55 56 56 56 56 56 55 55 56 55 55 54 54 54 53 52 55 53 55 50 49 42 46 49 54 53 48 48 46 47 48 50 54 53 56 54 48 56 60 61 62 60 63 67 66 68 69 69 70 69 68 70
55 54 55 55 55 55 55 55 55 56 55 55 54 54 54 53 51 51 56 55 53 51 44 43 41 40 50 46 45 46 46 41 48 46 51 52 50 46 53 55 58 60 60 62 64 64 66 67 67 69 68 68 67 67
54 55 55 55 55 55 55 55 55 54 54 54 54 50 50 55 57 57 51 48 47 48 47 42 48 39 47 44 40 40 44 42 41 49 53 47 48 57 60 61 62 63 64 64 61 61 64 66 67 67 68 69 68 69
55 55 55 55 55 55 55 55 54 54 53 53 50 50 55 56 53 48 45 43 46 44 47 47 46 42 48 39 38 41 40 44 39 45 44 45 44 53 60 61 63 64 65 67 67 67 67 66 64 63 67 68 70 71
54 54 54 54 54 55 55 54 54 53 52 51 51 52 51 50 48 44 43 46 44 43 48 46 48 46 45 45 40 42 40 43 37 45 41 37 45 48 50 54 59 63 64 66 66 65 67 69 65 66 69 70 71 69
54 54 54 54 54 55 54 54 54 54 53 53 50 49 46 49 39 42 40 42 43 50 53 51 45 47 45 45 42 41 39 40 45 36 34 39 44 47 46 49 53 57 63 65 65 67 68 68 68 67 69 71 72 70
54 54 54 54 54 55 54 54 54 54 53 50 47 35 45 43 45 46 45 48 53 52 52 51 46 45 44 41 41 37 42 41 35 33 33 41 45 47 51 59 59 61 63 63 63 66 67 67 65 66 68 70 70 70
53 53 53 54 55 55 54 54 54 55 52 48 49 40 47 54 54 53 54 52 55 55 50 47 47 47 42 41 41 40 38 35 35 34 35 43 48 52 54 58 59 60 61 62 65 66 65 66 64 65 68 69 68 68
53 53 52 54 54 54 53 53 55 55 52 49 48 48 53 51 51 51 50 50 56 53 52 47 46 45 44 44 42 39 35 32 35 40 46 47 48 50 53 55 56 58 60 62 62 61 62 63 65 66 68 68 68 68
53 51 54 54 54 53 53 54 53 50 50 49 50 53 50 47 46 50 50 49 55 49 47 48 45 44 50 46 41 42 39 41 44 46 46 47 47 47 51 53 54 55 56 57 58 59 63 66 67 67 65 66 69 69
52 54 54 53 54 52 55 54 51 50 48 50 48 50 49 49 48 49 53 52 48 47 49 47 52 45 41 39 40 44 46 48 49 49 48 48 48 49 51 51 53 54 56 57 57 59 60 59 58 58 60 64 67 67
53 53 53 54 54 53 52 52 54 48 51 52 52 51 50 49 52 53 53 53 53 52 51 50 45 41 42 45 45 47 48 50 48 50 51 53 53 50 51 50 51 52 51 53 56 57 57 57 58 58 59 60 64 64
53 53 53 54 53 51 51 51 55 51 50 50 50 50 50 49 51 54 56 55 55 52 46 44 43 46 46 47 49 50 50 50 50 54 56 56 56 55 55 54 53 52 55 57 54 53 60 62 62 61 61 62 65 63
53 54 54 54 53 53 52 51 50 50 51 51 49 47 49 51 53 52 53 56 54 47 45 47 47 49 52 52 53 52 56 55 54 54 53 55 57 57 56 57 56 59 56 55 55 57 56 56 59 63 64 65 66 67
53 54 54 54 51 51 51 51 51 50 50 52 51 51 52 51 51 52 50 51 50 53 52 53 53 53 54 55 56 56 56 57 57 57 52 54 55 55 55 56 56 57 58 57 57 58 59 60 60 62 64 65 63 67
53 53 52 50 48 43 45 51 48 49 47 50 51 49 50 49 51 52 48 48 50 52 53 52 53 53 52 55 55 56 56 56 56 56 56 56 56 56 57 57 57 55 56 57 58 59 58 51 59 62 64 64 64 64
53 50 47 47 46 43 50 47 49 49 49 49 48 48 49 51 51 49 48 49 51 51 52 52 51 53 57 55 57 56 55 56 56 56 56 56 56 55 54 55 57 58 56 57 59 59 59 60 54 62 62 62 62 61
43 43 45 37 49 45 44 45 46 47 47 49 47 48 48 48 47 46 48 50 52 52 53 54 53 53 54 56 58 57 55 58 58 56 56 56 56 56 56 57 57 57 57 56 56 57 58 60 61 60 60 59 59 59
38 46 41 47 48 45 47 47 48 49 50 50 50 53 51 48 45 45 50 54 57 57 57 56 57 57 58 56 56 57 57 58 58 57 57 57 56 54 53 52 53 56 58 57 56 55 57 58 59 58 59 57 48 58
39 46 50 52 51 49 49 52 53 51 51 49 52 50 47 44 42 45 49 54 57 60 58 57 56 56 56 57 57 57 59 59 57 57 59 59 59 58 55 53 52 55 56 57 58 57 57 57 58 58 58 59 58 59
48 50 47 49 47 50 50 52 52 50 53 54 55 50 47 45 44 51 57 60 58 57 58 59 59 59 59 59 58 59 60 59 60 61 63 63 62 61 59 59 58 45 54 58 57 59 59 59 58 58 58 58 58 59
47 51 51 49 51 51 52 54 55 56 53 50 47 46 46 50 56 59 60 60 60 60 58 59 59 59 60 60 60 61 61 59 56 53 52 53 55 58 61 60 60 59 60 59 48 50 55 57 57 58 57 57 58 59
48 52 49 52 53 54 56 57 55 52 53 53 52 50 53 57 60 60 60 58 57 57 61 60 60 59 59 58 59 60 62 61 58 55 52 53 56 59 59 59 59 60 59 59 60 60 49 56 55 59 58 58 57 57
54 52 52 56 54 55 58 57 57 56 54 53 53 55 57 59 61 61 61 60 60 62 62 61 61 61 59 59 57 57 57 61 59 57 57 57 59 59 59 59 60 59 59 59 59 59 58 57 57 56 56 55 55 53
55 54 54 52 50 55 57 55 53 53 52 54 55 57 56 57 55 59 61 60 61 61 54 57 59 59 60 60 59 59 45 58 58 58 57 57 58 59 59 60 60 60 59 58 58 58 57 56 56 55 55 54 54 54
55 55 53 53 50 50 52 54 53 50 52 53 54 55 55 57 53 59 60 61 61 61 60 60 61 60 59 58 58 59 50 59 54 43 41 41 39 44 53 60 60 59 58 58 58 57 56 55 54 54 54 53 53 53
MSLP
1020.73 1020.88 1020.93 1020.76 1020.58 1020.50 1020.32 1020.17 1019.98 1019.68 1019.30 1019.01 1018.78 1018.43 1018.10 1017.96 1017.79 1017.70 1017.87 1017.87 1017.48 1017.17 1016.35 1016.06 1015.79 1015.51 1015.47 1015.16 1014.59 1014.58 1014.43 1013.85 1012.87 1012.03 1011.22 1010.09 1009.14 1007.89 1007.03 1005.63 1004.91 1004.47 1004.03 1003.60 1003.26 1002.71 1001.64 1001.85 1001.32 1001.69 1002.42 1001.91 1001.85 1001.31
1020.23 1020.43 1020.57 1020.53 1020.43 1020.29 1020.15 1019.95 1019.83 1019.63 1019.28 1018.92 1018.72 1018.49 1018.19 1018.03 1017.88 1017.82 1017.73 1017.77 1017.95 1017.68 1016.61 1016.42 1015.80 1015.41 1015.20 1015.08 1015.06 1015.06 1014.83 1014.28 1013.68 1012.91 1012.36 1011.46 1010.33 1009.19 1008.09 1006.21 1005.90 1005.41 1004.22 1003.54 1003.19 1002.24 1002.84 1003.05 1003.21 1003.46 1003.32 1002.77 1002.03 1001.67
1019.90 1020.01 1020.05 1019.97 1020.06 1019.97 1019.81 1019.77 1019.62 1019.46 1019.19 1018.88 1018.62 1018.47 1018.14 1018.08 1017.92 1017.91 1017.75 1017.82 1017.88 1017.55 1016.62 1015.92 1015.02 1014.95 1015.11 1015.05 1015.02 1015.18 1014.72 1014.37 1014.10 1013.97 1013.28 1012.45 1011.37 1010.23 1008.68 1007.49 1007.01 1005.76 1005.47 1004.41 1003.76 1003.31 1003.43 1003.43 1003.77 1003.88 1003.67 1003.07 1002.38 1001.74
1019.81 1019.77 1019.76 1019.73 1019.65 1019.56 1019.42 1019.44 1019.33 1019.16 1018.95 1018.66 1018.44 1018.27 1018.08 1018.03 1017.93 1017.83 1017.80 1017.74 1017.94 1017.81 1017.04 1015.39 1015.06 1014.77 1014.57 1014.68 1014.80 1014.71 1014.51 1014.78 1014.60 1014.40 1013.60 1012.62 1011.55 1010.80 1009.52 1008.69 1007.93 1006.80 1006.24 1004.99 1004.13 1003.82 1003.68 1003.70 1003.97 1004.11 1003.68 1003.06 1002.20 1001.54
1019.35 1019.53 1019.49 1019.45 1019.42 1019.29 1019.19 1019.10 1018.99 1018.85 1018.65 1018.39 1018.18 1018.05 1017.91 1017.77 1017.73 1017.74 1017.91 1017.76 1017.81 1018.14 1017.17 1015.53 1014.78 1014.44 1014.36 1014.21 1014.24 1014.40 1014.57 1014.59 1014.51 1014.15 1013.36 1012.38 1011.46 1011.01 1009.80 1009.26 1007.76 1006.98 1006.04 1005.43 1004.61 1005.25 1005.32 1004.77 1004.65 1004.41 1003.75 1003.01 1002.36 1001.66
1018.96 1019.41 1019.35 1019.31 1019.36 1019.24 1018.89 1018.84 1018.77 1018.59 1018.35 1018.10 1017.96 1017.85 1017.66 1017.57 1017.58 1017.58 1017.59 1017.68 1017.70 1017.82 1017.23 1016.06 1014.78 1014.08 1013.97 1013.92 1013.92 1013.80 1013.86 1014.30 1014.40 1013.64 1012.44 1011.64 1010.98 1010.78 1009.37 1007.73 1006.66 1006.49 1006.17 1005.93 1005.71 1005.78 1005.72 1005.17 1004.60 1004.17 1003.80 1003.32 1002.79 1001.91
1018.98 1018.86 1018.95 1019.16 1019.17 1018.96 1018.81 1018.67 1018.51 1018.25 1017.95 1017.71 1017.64 1017.65 1017.53 1017.52 1017.51 1017.57 1017.63 1017.49 1017.50 1017.49 1017.13 1016.14 1014.66 1014.01 1014.08 1013.95 1013.71 1013.75 1013.83 1013.78 1013.51 1012.94 1011.65 1010.80 1010.46 1010.45 1009.07 1007.38 1006.03 1005.97 1006.14 1006.03 1006.11 1006.03 1005.03 1004.57 1004.41 1004.47 1004.03 1003.40 1002.93 1002.19
1018.68 1018.86 1019.02 1018.87 1018.79 1018.82 1018.63 1018.45 1018.16 1017.84 1017.59 1017.43 1017.44 1017.49 1017.48 1017.44 1017.51 1017.26 1017.07 1017.03 1017.40 1017.41 1017.12 1016.37 1014.94 1014.52 1014.46 1013.86 1013.71 1013.84 1013.73 1013.49 1012.80 1011.83 1011.09 1010.06 1009.71 1009.56 1007.31 1005.34 1006.22 1005.97 1005.92 1005.89 1005.66 1005.90 1005.21 1004.64 1004.20 1003.88 1003.69 1003.44 1003.14 1002.65
1018.62 1018.80 1018.72 1018.71 1018.62 1018.41 1018.27 1018.06 1017.77 1017.42 1017.28 1017.33 1017.38 1017.40 1017.38 1017.39 1017.14 1017.10 1016.94 1017.03 1017.12 1017.29 1016.74 1016.44 1015.72 1015.07 1014.50 1014.35 1014.14 1014.00 1013.54 1012.78 1011.86 1010.72 1009.53 1009.31 1008.13 1006.46 1005.16 1005.42 1005.45 1005.49 1005.39 1004.91 1005.39 1005.20 1004.79 1004.31 1003.94 1003.56 1003.39 1003.24 1003.37 1002.97
1018.51 1018.53 1018.59 1018.52 1018.39 1018.23 1017.99 1017.76 1017.53 1017.35 1017.19 1017.16 1017.23 1017.35 1017.03 1016.98 1016.92 1017.07 1017.19 1017.07 1016.92 1016.86 1016.75 1016.23 1015.71 1015.30 1014.84 1014.25 1014.42 1014.42 1013.17 1011.89 1010.48 1009.00 1008.62 1007.82 1006.09 1004.89 1004.69 1004.65 1004.47 1004.46 1004.51 1004.61 1004.70 1004.50 1004.39 1004.01 1003.75 1003.50 1003.33 1003.17 1003.36 1003.33
1018.25 1018.30 1018.41 1018.36 1018.24 1017.97 1017.68 1017.43 1017.33 1017.21 1017.22 1017.19 1017.22 1017.21 1017.26 1017.08 1016.96 1016.83 1016.68 1016.57 1016.37 1016.06 1015.84 1015.25 1014.91 1014.55 1014.12 1014.48 1014.54 1014.33 1012.97 1011.41 1010.18 1009.12 1008.81 1006.86 1005.38 1004.57 1004.30 1003.87 1003.69 1003.98 1003.94 1003.92 1004.14 1004.19 1004.27 1004.14 1003.99 1003.79 1003.44 1003.24 1002.86 1002.58
1018.08 1018.09 1018.19 1018.17 1018.03 1017.77 1017.54 1017.45 1017.36 1017.38 1017.48 1017.64 1017.64 1017.47 1017.23 1016.90 1016.59 1016.45 1016.00 1015.85 1015.55 1014.87 1014.39 1014.24 1013.76 1013.79 1013.94 1014.31 1014.33 1013.54 1012.53 1011.24 1009.66 1009.30 1008.65 1007.21 1005.42 1005.01 1004.77 1004.11 1003.36 1003.39 1003.52 1003.73 1003.97 1004.26 1004.21 1003.89 1003.90 1003.72 1003.27 1003.02 1002.82 1002.74
1017.91 1017.94 1017.98 1017.98 1017.82 1017.55 1017.44 1017.43 1017.35 1017.32 1017.41 1017.47 1017.39 1016.87 1016.78 1016.53 1016.00 1015.60 1015.31 1015.10 1014.66 1014.08 1013.57 1013.48 1013.45 1013.35 1013.93 1014.06 1013.74 1013.18 1012.10 1010.56 1009.91 1009.67 1008.58 1007.08 1005.95 1005.00 1003.77 1003.47 1003.00 1003.09 1002.70 1003.04 1003.40 1003.89 1003.85 1003.61 1003.49 1003.39 1002.90 1002.65 1002.40 1002.42
1017.80 1017.78 1017.74 1017.66 1017.51 1017.36 1017.29 1017.31 1017.29 1017.31 1017.30 1016.95 1016.76 1016.81 1016.34 1015.74 1015.33 1014.98 1014.85 1014.60 1014.11 1013.77 1013.39 1013.36 1013.16 1013.14 1013.44 1013.63 1013.41 1012.88 1011.68 1010.97 1010.38 1009.51 1008.64 1007.49 1005.87 1004.42 1002.55 1001.38 1001.43 1001.59 1002.22 1002.54 1003.04 1003.49 1003.44 1003.38 1003.11 1002.91 1002.82 1002.64 1002.45 1002.11
1017.69 1017.57 1017.46 1017.30 1017.36 1017.29 1017.15 1017.12 1017.12 1017.13 1016.97 1016.68 1016.54 1016.06 1015.60 1015.22 1015.04 1014.81 1014.60 1014.28 1013.80 1013.56 1013.41 1013.11 1012.86 1012.83 1012.80 1013.05 1013.04 1012.67 1011.84 1011.36 1011.21 1010.28 1009.79 1007.45 1005.74 1004.03 1002.92 1002.02 1001.81 1002.04 1002.25 1002.37 1002.62 1002.82 1002.85 1002.66 1002.56 1002.54 1002.53 1002.58 1002.36 1002.00
1017.45 1017.29 1017.29 1017.28 1017.23 1017.12 1017.03 1017.02 1016.99 1016.99 1016.73 1016.53 1016.26 1015.70 1015.31 1015.04 1014.74 1014.60 1014.32 1013.84 1013.53 1013.32 1013.09 1013.09 1012.62 1012.22 1012.04 1012.20 1012.44 1012.54 1012.70 1012.38 1011.89 1010.70 1009.28 1007.98 1006.80 1005.41 1004.41 1003.81 1003.45 1003.24 1003.13 1003.04 1003.03 1003.02 1003.00 1002.88 1002.68 1002.58 1002.54 1002.25 1002.05 1001.86
1017.33 1017.34 1017.30 1017.24 1017.10 1016.97 1016.82 1016.85 1016.73 1016.52 1016.29 1016.00 1015.58 1015.46 1015.50 1015.30 1015.08 1014.56 1014.26 1013.88 1013.66 1013.42 1012.80 1012.67 1012.29 1012.12 1011.86 1012.06 1012.71 1013.11 1013.07 1012.89 1012.14 1011.10 1010.15 1008.92 1008.17 1007.38 1006.31 1005.35 1004.92 1004.50 1004.30 1004.12 1004.01 1004.04 1003.82 1003.54 1003.27 1002.97 1002.73 1002.65 1002.33 1002.17
1017.34 1017.26 1017.23 1017.12 1017.02 1016.97 1016.83 1016.68 1016.47 1016.25 1015.83 1015.72 1015.57 1015.50 1015.34 1015.22 1014.79 1014.42 1013.98 1013.82 1013.83 1013.46 1013.01 1012.86 1012.67 1012.65 1012.94 1013.14 1013.33 1013.65 1013.08 1012.59 1011.73 1011.22 1010.55 1009.73 1008.99 1008.40 1007.76 1007.33 1006.83 1006.41 1005.90 1005.61 1005.66 1005.37 1004.84 1004.36 1004.07 1004.05 1003.80 1003.35 1002.91 1002.62
1017.35 1017.21 1017.06 1017.01 1016.96 1016.92 1016.60 1016.58 1016.42 1015.99 1015.73 1015.63 1015.51 1015.38 1015.28 1015.02 1014.55 1014.27 1013.93 1013.73 1013.73 1013.73 1013.52 1013.24 1013.44 1013.64 1013.76 1013.81 1013.65 1013.37 1012.92 1012.42 1011.91 1011.24 1010.81 1010.28 1009.64 1009.17 1008.91 1008.29 1007.52 1007.31 1006.89 1006.61 1006.19 1005.91 1005.62 1005.43 1005.28 1005.02 1004.63 1004.00 1003.36 1003.22
1017.16 1017.04 1017.03 1017.09 1017.10 1016.79 1016.48 1016.43 1016.43 1016.11 1015.82 1015.88 1015.76 1015.44 1015.26 1014.96 1014.58 1014.19 1013.86 1013.67 1013.55 1013.63 1014.01 1014.19 1014.43 1014.39 1014.28 1013.89 1013.59 1013.38 1012.86 1012.23 1011.75 1010.92 1010.48 1010.38 1010.20 1009.77 1009.45 1009.04 1008.57 1008.11 1007.47 1007.01 1006.64 1006.23 1005.72 1005.52 1005.31 1005.03 1005.02 1004.56 1003.86 1003.54
1017.19 1017.04 1016.97 1017.10 1017.03 1016.71 1016.53 1016.46 1016.33 1016.38 1016.07 1015.76 1015.73 1015.58 1015.20 1014.83 1014.50 1014.28 1014.05 1013.99 1013.68 1014.05 1014.35 1014.48 1014.36 1013.99 1013.58 1013.29 1013.09 1012.81 1012.34 1012.00 1011.58 1011.40 1011.14 1010.65 1010.56 1010.38 1010.00 1009.57 1009.21 1008.62 1008.24 1007.95 1007.63 1007.20 1006.77 1006.69 1006.18 1005.61 1005.33 1004.85 1004.50 1004.14
1017.11 1017.04 1017.01 1017.04 1016.87 1016.77 1016.72 1016.76 1016.54 1016.48 1016.25 1015.64 1015.43 1015.29 1014.86 1014.69 1014.60 1014.59 1014.72 1014.16 1014.22 1014.17 1014.22 1014.01 1013.84 1013.63 1013.34 1012.96 1012.69 1012.64 1012.31 1011.99 1011.75 1011.57 1011.48 1011.23 1010.89 1010.65 1010.47 1010.38 1009.81 1009.20 1008.80 1008.50 1008.09 1007.57 1007.18 1006.96 1006.80 1006.31 1005.73 1005.43 1005.03 1004.64
1017.09 1017.12 1017.00 1017.02 1016.95 1016.95 1016.94 1016.75 1016.33 1016.01 1015.71 1015.31 1015.16 1014.87 1014.72 1014.67 1014.60 1014.79 1014.59 1014.47 1014.30 1014.16 1014.06 1013.97 1013.70 1013.60 1013.39 1012.99 1012.73 1012.48 1012.36 1012.16 1011.94 1011.90 1011.82 1011.70 1011.58 1011.33 1010.94 1010.65 1010.45 1010.16 1009.65 1009.16 1008.87 1008.30 1007.82 1007.60 1006.98 1006.43 1005.96 1005.61 1005.30 1005.10
1017.07 1017.09 1016.93 1016.87 1016.83 1016.54 1016.48 1016.18 1016.03 1015.64 1015.28 1014.96 1014.60 1014.21 1014.15 1014.19 1014.46 1014.43 1014.21 1014.08 1013.96 1014.02 1013.92 1013.74 1013.65 1013.15 1012.75 1012.74 1012.50 1012.46 1012.47 1012.36 1012.24 1012.19 1012.15 1011.81 1011.53 1011.51 1011.48 1011.23 1010.84 1010.47 1010.21 1009.61 1008.97 1008.46 1008.03 1007.62 1007.28 1006.77 1006.55 1006.23 1006.00 1005.70
1017.41 1017.18 1016.94 1016.60 1016.34 1016.26 1015.85 1015.51 1015.27 1015.06 1014.44 1014.15 1013.95 1013.56 1013.56 1013.99 1014.05 1014.05 1013.85 1013.80 1013.56 1013.51 1013.45 1013.53 1013.47 1013.28 1012.93 1012.67 1012.51 1012.59 1012.75 1012.53 1012.28 1012.15 1012.27 1012.22 1012.01 1011.69 1011.41 1011.18 1010.98 1010.87 1010.61 1009.97 1009.42 1008.95 1008.47 1008.09 1007.73 1007.45 1007.19 1007.12 1006.87 1006.71
1016.82 1016.42 1016.35 1015.80 1015.64 1015.53 1014.95 1014.41 1014.10 1013.83 1013.61 1013.32 1013.05 1013.00 1013.26 1013.46 1013.66 1013.65 1013.71 1013.63 1013.32 1013.27 1013.34 1013.33 1013.26 1013.06 1012.85 1012.97 1012.77 1012.63 1012.73 1012.76 1012.59 1012.28 1012.32 1012.38 1012.23 1012.08 1011.84 1011.49 1011.11 1010.76 1010.78 1010.58 1010.07 1009.53 1009.01 1008.65 1008.34 1008.11 1007.91 1007.78 1007.86 1007.43
1016.23 1015.53 1015.46 1015.38 1015.08 1014.84 1014.24 1013.66 1013.49 1013.33 1012.89 1012.52 1012.27 1012.69 1013.01 1013.19 1013.54 1013.98 1013.82 1013.46 1013.20 1013.18 1013.32 1013.45 1013.49 1013.33 1013.17 1013.03 1012.94 1012.99 1012.90 1012.80 1012.69 1012.65 1012.55 1012.44 1012.42 1012.39 1012.27 1011.98 1011.62 1011.40 1011.20 1010.75 1010.23 1009.87 1009.47 1009.07 1008.79 1008.63 1008.41 1008.29 1008.19 1008.00
1015.45 1014.99 1014.70 1014.58 1014.54 1014.18 1013.47 1012.90 1012.62 1012.54 1012.41 1012.46 1012.35 1012.47 1012.85 1013.11 1013.40 1013.27 1013.00 1013.04 1013.22 1013.35 1013.37 1013.46 1013.50 1013.42 1013.27 1013.18 1013.12 1012.95 1012.73 1012.69 1012.43 1012.23 1012.04 1011.97 1012.06 1012.13 1012.14 1011.91 1011.69 1011.59 1011.25 1010.81 1010.49 1009.98 1009.70 1009.42 1009.20 1008.98 1008.70 1008.44 1008.32 1008.35
1014.82 1014.36 1014.37 1013.87 1013.61 1013.26 1012.78 1012.35 1012.24 1012.47 1012.61 1012.71 1012.92 1012.90 1013.11 1013.27 1013.14 1012.96 1013.03 1013.15 1013.35 1013.31 1013.32 1013.29 1013.26 1013.32 1013.13 1013.08 1013.04 1012.95 1012.84 1012.65 1012.40 1012.10 1011.89 1011.67 1011.54 1011.51 1011.67 1011.62 1011.38 1011.17 1010.93 1010.62 1010.40 1010.26 1010.03 1009.81 1009.53 1009.28 1008.87 1008.56 1008.30 1008.17
1013.94 1013.88 1013.51 1012.98 1012.52 1012.05 1012.00 1012.08 1012.23 1012.48 1012.77 1012.90 1013.02 1013.09 1013.10 1012.97 1013.02 1013.26 1013.19 1013.34 1013.39 1013.30 1013.31 1013.41 1013.35 1013.15 1012.90 1012.79 1012.63 1012.65 1012.70 1012.76 1012.82 1012.72 1012.30 1011.97 1011.54 1011.55 1011.50 1011.30 1011.10 1010.91 1010.79 1010.50 1010.10 1009.83 1009.82 1009.49 1009.23 1008.81 1008.65 1008.39 1008.17 1007.98
1013.05 1013.15 1012.76 1012.21 1011.96 1011.95 1011.94 1012.18 1012.29 1012.43 1012.57 1012.77 1012.79 1012.63 1012.59 1012.74 1012.93 1013.14 1013.24 1013.38 1013.38 1013.29 1013.21 1013.15 1013.00 1012.97 1012.91 1012.77 1012.75 1012.66 1012.56 1012.59 1012.78 1012.77 1012.67 1012.34 1011.88 1011.55 1011.34 1011.14 1010.93 1010.75 1010.50 1010.20 1009.89 1009.67 1009.52 1009.33 1009.12 1008.94 1008.72 1008.56 1008.43 1008.30
1012.09 1011.99 1011.86 1011.80 1012.04 1012.13 1012.14 1012.12 1012.23 1012.34 1012.46 1012.44 1012.46 1012.55 1012.73 1012.61 1012.63 1012.83 1013.12 1013.27 1013.16 1013.08 1013.33 1013.30 1013.06 1012.91 1013.03 1012.99 1012.92 1012.90 1013.23 1012.87 1012.73 1012.60 1012.47 1012.23 1011.91 1011.61 1011.40 1011.09 1010.78 1010.50 1010.17 1009.84 1009.59 1009.35 1009.16 1009.01 1008.81 1008.67 1008.47 1008.35 1008.29 1008.21
1011.35 1011.42 1011.52 1011.65 1011.89 1012.02 1012.22 1012.25 1012.23 1012.35 1012.37 1012.27 1012.23 1012.32 1012.43 1012.38 1012.46 1012.67 1013.27 1013.35 1013.26 1013.15 1013.18 1013.21 1013.15 1013.14 1013.06 1012.94 1012.76 1012.65 1012.73 1012.58 1012.53 1012.47 1012.35 1012.22 1012.02 1011.76 1011.46 1010.85 1010.50 1010.21 1009.86 1009.57 1009.32 1009.10 1008.92 1008.78 1008.60 1008.45 1008.28 1008.11 1007.99 1007.89
Wind_Speed
7 9 9 9 8 9 10 11 11 11 11 12 12 13 9 10 10 3 2 4 3 2 4 4 3 4 3 2 2 3 3 2 1 2 3 1 4 2 6 7 6 7 6 7 10 10 15 11 6 6 7 5 10 12
7 7 8 8 8 9 9 10 10 11 11 11 11 13 8 9 8 3 2 1 1 3 4 2 5 9 7 3 2 1 4 1 1 2 2 2 3 3 3 7 3 8 5 3 5 1 4 4 6 5 9 11 11 14
4 7 6 6 7 7 8 10 10 10 10 10 10 11 7 7 6 4 3 1 0 2 4 3 2 0 6 13 10 3 2 3 2 2 1 2 6 2 3 4 5 3 3 5 4 4 4 7 4 8 13 11 13 12
7 5 7 7 6 7 6 8 9 10 10 10 10 10 8 4 5 2 3 2 1 1 3 1 1 5 2 5 10 14 8 2 1 2 3 4 4 3 3 4 4 4 8 4 6 4 8 10 10 13 16 12 14 13
5 6 6 6 6 6 7 8 9 10 10 10 10 9 10 4 3 1 1 2 1 2 3 6 11 2 3 5 11 12 13 11 6 5 6 6 4 5 7 5 10 5 5 4 2 4 4 9 13 16 10 12 13 14
3 6 6 5 6 8 7 8 10 11 11 11 10 9 10 1 4 0 2 2 2 2 2 4 2 4 4 6 8 11 11 8 6 5 6 6 7 6 5 9 14 11 8 7 2 9 10 17 14 7 12 12 12 10
5 5 4 5 6 7 7 9 11 12 12 10 8 7 6 2 1 1 2 2 2 1 1 4 4 1 3 3 1 2 5 5 6 5 7 9 6 9 12 16 16 8 7 10 9 13 12 8 11 13 9 12 11 10
5 2 4 5 6 7 9 11 11 12 12 8 5 5 6 3 3 2 1 5 6 2 2 3 4 4 4 2 4 1 2 3 4 4 3 7 6 9 15 22 20 20 19 18 18 13 17 16 14 10 7 7 10 7
4 2 6 5 6 8 10 11 12 12 5 4 4 4 1 0 1 1 4 8 1 2 1 1 3 4 1 2 2 2 2 3 3 5 10 6 9 14 10 16 17 17 18 20 12 10 12 13 14 10 9 6 6 6
3 3 4 5 7 8 10 11 10 8 6 2 1 1 2 1 2 7 2 1 1 0 1 3 2 5 3 1 1 3 3 4 4 6 2 8 15 23 21 16 15 19 20 15 13 14 9 10 10 10 7 6 7 7
3 1 3 5 7 9 10 8 7 7 1 1 2 2 2 4 1 1 1 1 1 3 3 4 6 5 2 2 3 3 4 3 4 1 3 4 5 5 10 20 19 15 15 17 15 9 7 9 9 6 5 7 7 7
1 1 4 6 7 9 8 7 6 2 1 1 2 2 2 2 1 1 1 1 3 3 2 3 4 4 1 2 2 4 4 3 6 0 4 3 4 7 13 15 14 19 21 19 10 10 10 11 6 9 9 10 8 7
1 3 5 6 8 8 5 5 3 2 1 1 2 0 2 0 1 2 4 2 3 3 3 5 7 1 1 1 3 3 5 5 5 2 4 5 6 7 13 16 20 20 19 20 17 9 10 11 9 9 8 6 9 8
3 4 6 7 7 4 4 3 3 2 1 0 1 4 1 1 1 2 3 5 5 5 10 9 5 1 1 2 2 4 4 5 3 4 3 10 17 20 16 7 12 13 12 12 12 12 11 11 8 8 6 7 7 9
5 7 8 2 0 6 5 2 1 1 0 0 1 1 1 2 3 4 3 6 6 6 6 6 4 3 2 2 2 4 6 5 5 4 6 13 19 10 12 12 10 9 11 12 11 11 10 7 4 5 4 6 6 6
7 6 1 1 5 7 5 1 1 1 1 1 2 2 2 4 5 4 6 7 4 6 5 2 3 3 1 2 1 4 7 4 5 7 11 12 16 17 15 13 13 12 12 10 8 7 5 2 1 0 2 5 6 4
6 1 1 6 5 5 3 1 1 2 2 2 1 0 1 2 4 5 5 4 4 4 2 2 4 5 4 4 5 5 6 6 7 8 9 14 16 16 16 16 16 14 13 11 11 9 7 6 5 5 7 7 6 6
1 0 6 6 2 2 1 1 1 1 1 1 1 2 1 2 4 4 4 3 2 3 3 4 2 5 4 4 3 2 4 7 6 5 6 9 13 13 12 15 14 14 13 13 11 9 10 10 10 7 8 8 6 7
3 5 5 1 1 1 1 1 1 2 1 1 2 1 2 3 3 3 3 2 1 1 2 3 4 4 3 2 2 5 6 6 4 5 4 6 7 9 11 11 11 10 10 10 11 8 6 8 6 6 6 5 5 6
2 1 1 1 1 1 1 1 1 1 1 2 2 3 3 2 4 3 5 4 3 2 5 4 2 2 2 3 4 6 6 6 5 5 6 7 8 8 10 8 6 7 8 9 7 10 9 8 7 7 6 6 6 7
0 1 0 0 1 1 1 1 1 1 2 2 0 3 2 2 2 4 4 5 3 2 1 2 3 4 5 7 5 4 6 5 4 3 4 6 7 7 8 8 8 8 8 7 7 7 7 6 7 7 6 6 5 5
1 1 0 0 1 2 1 1 1 1 2 2 2 2 2 1 2 2 3 2 1 1 2 2 3 5 7 7 7 6 5 3 3 3 4 5 7 7 6 6 7 8 7 7 8 8 7 7 7 6 5 5 4 4
0 0 1 2 0 2 0 1 2 1 2 1 2 2 2 2 1 1 1 1 2 2 2 3 6 6 7 8 7 4 3 2 3 4 4 4 4 6 6 6 6 7 7 7 7 7 6 7 6 6 6 6 6 5
1 1 0 0 1 1 0 2 1 2 1 2 2 2 2 2 2 1 1 1 2 2 2 5 3 3 2 2 2 3 3 1 2 3 4 6 7 6 5 4 5 6 7 7 7 7 6 6 7 7 8 8 8 8
0 1 1 2 2 2 3 2 2 2 3 3 3 3 3 3 2 2 1 1 2 2 3 2 1 1 2 3 2 4 4 2 3 3 4 4 5 6 6 6 5 5 6 8 9 9 7 6 6 7 8 9 10 10
1 3 4 4 2 4 3 3 4 4 3 3 5 1 2 2 3 2 1 0 1 1 2 2 3 4 3 3 4 4 4 3 3 3 3 3 4 5 6 6 6 7 7 6 7 8 7 5 5 6 6 6 7 7
3 4 4 2 2 2 4 4 2 3 4 4 2 4 3 2 2 1 3 3 2 0 0 0 2 3 3 3 2 2 2 3 3 3 2 2 1 1 4 5 6 6 7 8 8 7 8 5 5 5 5 5 5 6
4 2 4 4 3 3 4 3 3 2 2 4 2 1 1 2 3 2 3 1 0 1 2 1 1 2 2 2 3 3 3 4 4 4 2 0 1 1 3 4 4 8 6 4 5 6 7 6 6 6 6 6 4 4
4 2 3 4 4 4 4 3 0 1 1 2 3 3 4 2 1 1 1 1 3 2 1 2 2 3 2 2 2 1 3 4 7 10 8 6 5 4 5 6 5 4 4 5 4 3 5 5 6 6 7 7 7 5
3 5 4 4 4 3 2 2 2 2 1 1 2 0 1 1 1 0 3 3 2 2 1 2 2 4 4 5 4 3 1 3 3 5 7 8 8 7 7 7 6 6 5 5 6 5 4 6 6 7 7 6 5 6
3 5 4 3 2 1 2 2 1 1 2 1 2 2 2 2 2 2 2 1 2 1 1 3 4 4 5 6 4 4 5 3 6 7 5 6 6 6 6 7 6 6 6 6 6 6 6 7 7 7 7 8 8 7
5 6 3 3 1 2 1 1 0 0 1 1 2 2 2 2 3 3 3 3 3 2 0 3 4 6 6 5 4 4 4 5 5 5 7 7 7 6 6 6 6 6 7 7 7 7 8 9 8 9 9 9 9 9
3 3 2 3 2 3 1 1 0 0 1 1 2 2 3 2 3 2 2 2 2 1 2 3 4 5 6 7 5 4 4 5 7 8 9 8 8 8 7 7 7 8 9 9 9 9 10 11 10 11 11 11 10 10
Wind_Direction
264 282 293 299 310 318 324 330 333 337 345 348 348 351 357 5 20 19 56 16 356 300 267 225 219 203 168 223 260 21 242 155 289 194 257 230 247 260 268 252 266 232 204 201 207 221 243 8 319 300 2 320 315 319
247 278 298 298 307 319 323 326 330 335 340 345 344 344 357 355 11 45 18 23 40 242 307 296 266 264 255 205 139 154 359 297 346 269 216 271 256 261 309 244 174 238 268 277 259 159 70 32 65 20 340 315 327 317
230 273 282 290 305 313 320 321 329 331 336 338 337 336 343 349 355 22 333 305 350 309 285 280 238 153 235 242 244 274 207 286 212 343 324 290 264 254 249 227 301 217 343 258 286 131 335 284 134 1 341 323 320 321
242 267 275 279 293 298 317 321 324 325 326 330 330 327 331 334 348 343 314 347 244 327 298 289 275 267 232 184 203 220 251 135 67 295 280 260 259 203 266 318 275 305 319 294 274 282 326 151 3 346 329 324 331 331
224 264 270 275 285 299 312 316 316 317 320 324 324 319 327 294 346 298 255 263 163 315 317 302 305 210 215 204 219 224 230 241 246 239 227 232 246 254 248 270 258 239 261 238 296 86 325 295 317 326 325 337 336 331
213 265 278 287 292 291 307 312 314 314 318 318 314 312 319 78 33 213 169 99 193 192 292 302 298 242 264 212 226 220 219 225 225 218 227 226 228 229 249 253 246 237 258 253 284 328 314 296 306 346 339 339 340 349
249 251 275 285 286 295 308 311 313 316 311 307 296 304 314 91 346 290 15 79 125 248 286 292 287 262 313 291 259 224 188 199 213 224 227 234 208 211 245 251 238 226 262 277 292 317 305 320 316 325 328 329 332 28
211 255 301 281 293 318 320 316 320 316 310 309 297 299 304 298 274 259 237 239 212 284 278 287 291 312 8 286 276 105 230 209 213 243 229 226 225 225 243 243 248 250 263 273 280 284 266 285 304 313 336 326 326 336
161 224 280 309 313 315 315 325 326 321 341 331 310 302 102 211 200 125 97 127 184 275 295 270 276 314 15 288 315 285 267 246 199 238 228 221 217 223 237 240 236 239 241 253 256 278 293 298 290 305 326 316 315 336
204 259 300 310 321 320 322 328 338 341 322 286 196 232 138 51 233 144 212 219 176 191 213 250 208 242 216 265 347 290 234 245 238 219 159 228 242 244 241 235 230 225 229 235 238 267 275 289 314 328 326 332 303 303
203 222 317 319 321 318 319 321 334 335 189 25 29 36 331 309 236 339 309 271 152 245 209 238 236 257 167 187 237 225 282 270 267 107 255 239 243 260 288 245 229 232 237 239 239 243 268 280 313 322 316 331 327 310
152 358 332 318 315 312 318 331 343 18 48 16 310 271 249 225 184 315 310 248 236 275 227 237 280 217 169 135 228 227 257 246 251 295 238 260 254 301 308 292 282 241 237 241 236 239 254 276 268 267 279 293 315 308
9 341 320 315 311 314 316 331 344 270 120 154 225 215 38 49 317 35 10 313 287 253 265 317 320 144 159 223 247 273 262 257 354 283 260 255 283 268 271 274 276 271 234 231 232 232 263 275 272 255 255 272 303 285
329 315 308 303 306 323 328 338 353 49 258 282 88 360 313 83 291 329 282 309 312 273 305 317 291 255 139 212 301 275 291 306 310 282 277 294 307 310 304 237 214 208 196 208 217 226 246 258 253 246 252 278 282 280
324 317 308 295 74 330 329 328 41 120 281 81 214 35 223 339 293 309 317 300 300 289 312 301 260 249 168 247 226 284 318 320 343 301 275 306 314 354 30 51 96 143 169 176 188 209 228 243 258 272 268 260 257 277
332 322 118 129 320 320 315 92 123 185 155 211 206 282 298 295 338 316 306 290 322 316 306 225 273 267 262 228 277 13 336 342 308 297 327 352 1 6 16 43 56 66 73 68 60 52 44 28 271 347 15 23 13 346
328 221 185 332 336 340 131 152 175 212 276 223 90 253 264 253 258 296 307 291 322 308 346 313 345 357 310 14 24 359 357 344 315 346 357 3 7 8 11 22 33 39 47 46 40 35 47 52 48 57 44 26 30 43
245 273 317 311 349 314 169 221 273 280 286 73 321 349 274 251 282 301 309 308 322 318 317 34 309 15 21 9 5 356 271 312 302 316 352 5 8 4 15 24 22 26 36 41 33 37 37 33 30 14 360 12 40 19
284 296 307 243 52 272 260 134 265 350 360 339 320 314 310 285 270 284 321 348 222 313 318 16 38 6 3 333 306 310 322 340 317 318 319 350 350 356 19 353 360 7 23 23 27 25 26 24 24 2 356 6 41 34
313 8 223 249 269 270 188 109 289 294 348 359 299 325 307 279 306 315 13 19 21 54 38 34 354 300 271 264 263 282 286 299 308 344 23 24 13 9 15 6 356 352 10 11 13 10 16 19 13 8 359 5 29 39
343 299 63 149 299 8 25 346 75 353 313 292 329 320 304 318 342 351 351 344 36 70 150 223 239 244 239 252 263 286 313 328 351 8 351 358 12 23 11 4 356 13 17 9 4 359 14 2 344 354 349 0 3 27
260 313 38 308 17 3 20 99 317 331 266 313 287 312 272 278 303 340 322 13 341 261 229 240 248 274 293 295 314 318 302 324 65 82 47 15 14 7 10 6 359 4 9 5 354 348 346 348 344 326 342 351 350 25
106 152 74 26 193 54 150 236 248 194 270 312 273 247 220 232 219 343 269 243 281 261 269 281 289 292 284 300 316 320 338 348 57 46 33 21 19 10 359 4 7 4 354 358 346 340 344 336 2 3 19 26 26 31
14 245 258 298 163 240 183 234 255 248 250 245 241 253 215 206 156 198 211 241 256 303 298 310 304 307 255 244 347 5 3 353 87 65 23 11 10 11 357 354 359 4 354 333 342 344 350 360 354 26 28 37 39 38
289 209 170 265 208 240 223 210 212 227 249 206 235 230 197 170 193 215 221 244 308 329 343 350 357 346 346 339 349 23 30 350 8 24 32 12 2 1 5 3 7 20 358 349 356 351 351 1 23 30 36 33 36 38
281 190 165 205 182 216 199 224 207 219 221 229 227 208 166 186 189 157 118 262 264 300 345 333 333 333 2 17 348 8 7 344 307 332 23 360 3 358 350 344 350 4 5 349 343 350 358 7 24 25 35 43 33 36
247 224 197 222 264 236 251 241 250 245 244 224 205 168 167 228 95 168 256 240 257 157 176 294 280 305 330 347 355 5 344 355 348 334 315 325 298 318 346 338 333 335 331 333 349 355 355 353 13 23 29 41 39 31
251 269 226 161 212 223 275 264 219 234 328 358 274 184 47 94 205 211 224 131 245 138 93 68 358 303 302 320 336 338 344 343 332 330 298 185 59 197 335 328 316 302 295 336 343 357 358 359 356 350 342 337 345 11
235 216 212 231 222 219 227 254 7 108 142 171 156 190 184 228 250 269 27 131 147 144 106 357 4 338 297 258 246 2 354 349 342 335 331 327 332 352 356 334 328 319 310 313 325 340 345 337 338 334 336 334 324 306
239 192 216 233 228 226 150 190 146 131 142 102 90 100 190 217 31 57 131 153 179 152 60 338 325 329 336 327 314 317 5 3 353 324 318 318 316 326 320 321 325 327 312 299 301 315 335 326 334 330 334 338 346 332
171 185 245 230 279 47 107 130 141 145 132 147 193 186 125 114 124 125 168 175 165 138 309 346 344 343 325 330 312 297 316 357 343 334 316 311 300 301 312 321 322 321 313 310 305 302 321 322 326 319 316 317 322 319
190 203 213 202 177 157 155 219 150 130 127 213 141 120 150 177 211 184 172 185 205 249 298 298 319 332 337 319 298 268 263 294 304 318 325 320 312 310 308 307 305 307 311 311 306 304 315 320 321 322 320 314 309 307
163 173 138 133 147 168 192 216 173 124 217 221 223 207 203 245 289 114 116 240 293 327 322 325 324 320 313 311 293 284 274 297 298 281 272 277 272 279 291 294 298 295 294 294 296 295 297 301 305 310 310 310 309 308